Simultaneous Nadir Overpasses (SNOs) Predictions

Prediction of SNOs between GOES-17 and FY3D Satellite Orbit:

Table of predicted SNOs for the next 14.0 days since TLE Epoch: 1/14/2023
Index Date Time (GOES-17) GOES-17 Lat,Lon FY3D Lat,Lon Distance(km) Time Diff (sec)
1 01/14/2023 11:21:32 0.00,-137.29 0.70,-140.35 348.90 80
2 01/15/2023 11:00:32 0.00,-137.28 -0.31,-135.92 155.96 80
3 01/16/2023 23:23:07 -0.00,-137.26 -0.92,-141.35 466.28 80
4 01/17/2023 23:07:27 -0.00,-137.24 0.10,-136.92 38.12 80
5 01/20/2023 11:11:32 0.01,-137.19 0.16,-137.87 77.12 80
6 01/21/2023 10:50:33 0.01,-137.16 -0.86,-133.43 426.41 80
7 01/22/2023 23:13:06 -0.01,-137.12 -0.40,-138.86 197.51 80
8 01/23/2023 22:57:25 -0.01,-137.10 0.57,-134.41 305.96 80
9 01/25/2023 11:19:51 0.01,-137.06 0.65,-139.81 313.66 80
10 01/26/2023 10:58:51 0.01,-137.03 -0.38,-135.37 189.60 80
11 01/27/2023 23:21:25 -0.01,-136.99 -0.87,-140.80 434.70 80
